SCP
0 -0 -0 -0 0 -0 0 -0 -0 -0 0 0 0 0 0 0 0 0 0 0 0 0 0 0 0 0 0 0 0 0 0 0 0 0 0 0 0 0 0 0 0 0 0 0 0 0 0 0 0 0 0 0 0 0
-0 0 0 -0 0 0 0 -0 0 -0 0 0 0 0 0 0 0 0 0 0 0 -0 0 0 0 0 0 0 0 0 0 0 0 0 0 0 0 0 0 0 0 0 0 0 0 0 0 0 0 0 0 0 0 0
-0 0 0 -0 -0 -0 -0 0 -0 -0 0 0 0 0 0 0 0 0 0 0 0 0 0 0 0 0 0 0 0 0 0 0 0 0 0 0 0 0 0 0 0 0 0 0 0 0 0 0 0 0 0 0 0 0
-0 0 -0 -0 -0 -0 0 0 0 0 0 0 0 0 0 0 0 0 0 0 0 0 0 0 0 0 0 0 0 0 0 0 0 0 0 -0 0 0 0 0 0 0 0 0 0 0 0 0 0 0 0 0 0 0
0 0 0 0 0 0 -0 0 0 0 0 0 0 0 0 0 0 0 0 0 0 0 0 -0 0 0 0 0 0 0 0 -0 0 0 0 0 0 0 0 0 0 0 0 0 0 0 0 0 0 0 0 0 0 0
-0 -0 0 -0 -0 -0 -0 0 0 0 0 0 0 0 0 0 0 0 0 0 0 0 0 -0 0 0 0 0 0 0 0 0 0 0 0 0 0 0 0 0 0 0 0 0 0 0 0 0 0 0 0 0 0 0
-0 -0 -0 -0 -0 -0 -0 -0 0 0 0 0 0 0 0 0 0 0 0 0 0 0 0 0 0 0 0 0 0 0 0 0 0 0 0 0 -0 0 0 0 0 0 0 0 0 0 0 0 0 0 0 0 0 0
-0 -0 0 0 0 0 0 0 0 0 0 0 0 0 0 0 0 0 0 0 0 0 0 0 0 0 0 0 0 0 0 0 0 0 0 0 0 0 0 0 0 0 0 0 0 0 0 0 0 0 0 0 0 0
-0 0 0 -0 -0 -0 0 0 0 0 0 0 0 0 0 0 0 0 0 0 0 0 0 -0 0 0 0 0 0 0 0 0 0 0 0 0 0 0 0 0 0 0 0 0 0 0 0 0 0 0 0 0 0 0
-0 -0 0 0 0 -0 0 0 0 0 0 0 0 0 0 0 0 0 0 0 0 0 0 -0 0 0 0 0 0 0 0 0 0 0 0 0 0 0 0 0 0 0 0 0 0 0 0 0 0 0 0 0 0 0
0 0 0 0 -0 0 -0 0 0 0 0 0 0 0 0 0 0 0 0 0 0 0 0 0 0 0 0 0 0 0 0 0 0 0 0 0 0 0 0 0 0 0 0 0 0 0 0 0 0 0 0 0 0 0
0 0 -0 -0 -0 0 0 0 0 0 0 0 0 0 0 0 0 0 0 0 0 0 0 0 0 0 0 0 0 0 0 0 0 0 0 0 0 0 0 0 0 0 0 0 0 0 0 0 0 0 0 0 0 0
0 0 0 -0 -0 -0 -0 -0 -0 0 0 0 0 0 0 0 0 0 0 0 0 0 0 0 0 0 0 0 0 0 0 0 0 0 0 0 0 0 0 0 0 0 0 0 0 0 0 0 0 0 0 0 0 0
0 0 0 0 0 0 0 0 0 0 0 0 0 0 0 0 0 0 0 0 0 0 0 0 0 0 0 0 0 0 0 0 0 0 0 0 0 0 0 0 0 0 0 0 0 0 0 0 0 0 0 0 0 0
0 0 0 0 0 0 -0 -0 -0 0 0 0 0 0 0 0 0 0 0 0 0 0 0 0 0 0 0 0 0 0 0 0 0 0 0 0 0 0 0 0 0 0 0 0 0 0 0 0 0 0 0 0 0 0
0 -0 0 0 0 0 0 0 -0 0 0 0 0 0 0 0 0 0 0 0 0 0 0 0 0 0 0 0 0 0 0 0 0 0 0 0 0 0 0 0 0 0 0 0 0 0 0 0 0 0 0 0 0 0
-0 0 -0 0 0 0 0 0 0 0 0 0 0 0 0 0 0 0 0 0 0 0 0 0 0 0 0 0 0 0 0 0 0 0 0 0 0 0 0 0 0 0 0 0 0 0 0 0 0 0 0 0 0 0
-0 -0 -0 -0 0 0 0 0 0 0 0 0 0 0 0 0 0 0 0 0 0 0 0 0 0 0 0 0 0 0 0 0 0 0 0 0 0 0 0 0 0 0 0 0 0 0 0 0 0 0 0 0 0 0
-0 -0 -0 -0 0 0 0 0 0 0 -0 0 0 0 0 0 0 0 0 0 0 0 0 0 0 0 0 0 0 0 0 0 0 0 0 0 0 0 0 0 0 0 0 0 0 0 0 0 0 0 0 0 0 0
-0 -0 -0 -0 0 0 0 0 0 0 0 0 0 0 0 0 0 0 0 0 0 0 0 0 0 0 0 0 0 0 0 0 0 0 0 0 0 0 0 0 0 0 0 0 0 0 0 0 0 0 0 0 0 0
-0 -0 -0 0 0 -0 0 0 0 0 0 0 0 0 0 0 0 0 0 0 0 0 0 0 0 0 0 0 0 0 0 0 0 0 0 0 0 0 0 0 0 0 0 0 0 0 0 0 0 0 0 0 0 0
0 -0 0 0 0 0 0 0 0 0 0 0 0 0 0 0 0 0 0 0 0 0 0 0 0 0 0 0 0 0 0 0 0 0 0 0 0 0 0 0 0 0 0 0 0 0 0 0 0 0 0 0 0 0
0 0 0 0 0 0 0 0 0 0 0 0 0 0 0 0 0 0 0 0 0 0 0 0 0 0 0 0 0 0 0 0 0 0 0 0 0 0 0 0 0 0 0 0 0 0 0 0 0 0 0 0 0 0
0 0 0 0 0 0 0 0 0 0 0 0 0 0 0 0 0 0 0 0 0 0 0 0 0 0 0 0 0 0 0 0 0 0 0 0 0 0 0 0 0 0 0 0 0 0 0 0 0 0 0 0 0 0
0 0 0 0 0 0 0 0 0 0 0 0 0 0 0 0 0 0 0 0 0 0 0 0 0 0 0 0 0 0 0 0 0 0 0 0 0 0 0 0 0 0 0 0 0 0 0 0 0 0 0 0 0 0
0 0 0 0 0 0 0 0 0 0 0 0 0 0 0 0 0 0 0 0 0 0 0 0 0 0 0 0 0 0 0 0 0 0 0 0 0 0 0 0 0 0 0 0 0 0 0 0 0 0 0 0 0 0
0 0 0 0 0 0 0 0 0 0 0 0 0 0 0 0 0 0 0 0 0 0 0 0 0 0 0 0 0 0 0 0 0 0 0 0 0 0 0 0 0 0 0 0 0 0 0 0 0 0 0 0 0 0
0 0 0 0 0 0 0 0 0 0 0 0 0 0 0 0 0 0 0 0 0 0 0 0 0 0 0 0 0 0 0 0 0 0 0 0 0 0 0 0 0 0 0 0 0 0 0 0 0 0 0 0 0 0
0 0 0 0 0 0 0 0 0 0 0 0 0 0 0 0 0 0 0 0 0 0 0 0 0 0 0 0 0 0 0 0 0 0 0 0 0 0 0 0 0 0 0 0 0 0 0 0 0 0 0 0 0 0
0 0 0 0 0 0 0 0 0 0 0 0 0 0 0 0 0 0 0 0 0 0 0 0 0 0 0 0 0 0 0 0 0 0 0 0 0 0 0 0 0 0 0 0 0 0 0 0 0 0 0 0 0 0
0 0 0 0 0 0 0 0 0 0 0 0 0 0 0 0 0 0 0 0 0 0 0 0 0 0 0 0 0 0 0 0 0 0 0 0 0 0 0 0 0 0 0 0 0 0 0 0 0 0 0 0 0 0
0 0 0 0 0 0 0 0 0 0 0 0 0 0 0 0 0 0 0 0 0 0 0 0 0 0 0 0 0 0 0 0 0 0 0 0 0 0 0 0 0 0 0 0 0 0 0 0 0 0 0 0 0 0
0 0 0 0 0 0 0 0 0 0 0 0 0 0 0 0 0 0 0 0 0 0 0 0 0 0 0 0 0 0 0 0 0 0 0 0 0 0 0 0 0 0 0 0 0 0 0 0 0 0 0 0 0 0
Wind_Speed_500mb
70 64 63 62 57 51 44 40 40 35 34 53 74 58 58 61 64 68 76 88 76 19 11 47 45 25 18 43 18 13 14 14 14 18 26 8 4 8 7 10 24 17 15 9 7 3 15 21 19 29 12 9 35 55
82 70 60 58 56 54 47 43 37 28 34 57 48 47 47 54 57 55 49 77 83 23 11 37 37 47 50 59 28 29 14 13 21 10 7 8 2 7 18 13 6 8 15 16 22 16 3 49 3 23 23 28 31 61
83 68 61 55 55 55 47 46 41 30 25 33 31 37 43 48 56 57 56 58 51 31 16 23 33 55 50 55 45 12 18 26 38 19 6 3 7 6 8 8 11 1 7 9 10 13 9 42 11 20 22 23 33 51
30 44 45 47 50 54 49 51 49 44 40 36 37 38 39 47 52 57 53 51 56 19 6 11 48 60 49 55 60 64 45 24 37 19 6 5 4 4 5 7 7 9 18 14 3 2 8 25 31 34 29 30 37 50
18 14 26 36 44 57 60 54 56 50 46 49 47 44 42 49 52 54 52 48 64 32 9 8 20 37 48 58 49 79 87 55 18 8 4 4 1 8 1 3 3 9 23 20 17 22 9 29 48 41 41 44 47 65
33 21 22 32 39 41 58 62 62 58 56 55 53 51 48 51 61 40 16 51 56 58 6 3 11 17 33 53 51 60 71 53 23 15 5 11 4 8 8 6 7 30 31 31 11 53 16 39 52 46 46 50 59 69
62 37 23 13 18 30 46 56 64 68 61 62 58 58 57 60 61 40 16 15 77 48 4 5 4 5 22 47 28 34 44 29 15 14 5 8 10 6 4 1 9 39 35 27 41 59 27 51 36 51 53 60 65 71
63 26 12 10 14 25 36 45 57 66 71 68 62 50 68 62 43 14 11 34 71 38 9 1 4 3 14 15 7 13 14 12 7 10 8 6 10 1 6 10 19 37 35 49 58 38 50 53 53 53 57 67 69 76
75 18 11 11 30 36 53 59 65 66 64 59 53 58 55 33 14 19 49 55 54 13 5 3 5 5 12 10 10 10 13 7 6 5 3 8 5 9 4 4 26 54 41 55 42 40 53 64 65 63 67 70 82 86
77 38 34 55 56 65 64 65 61 66 62 67 56 19 11 15 36 34 25 17 11 3 3 3 5 3 5 3 4 4 6 4 4 2 5 3 4 7 12 10 23 23 44 66 64 42 62 71 77 77 79 82 89 93
50 62 68 69 65 62 61 58 56 48 48 17 14 12 30 42 16 6 4 4 4 3 6 1 4 6 6 6 5 4 5 1 5 2 2 0 4 4 5 22 21 31 52 53 54 64 66 76 83 81 74 75 83 85
40 49 51 51 48 49 48 49 37 27 19 20 38 33 15 7 10 9 3 5 2 3 1 5 4 9 9 7 6 9 6 3 6 3 4 5 3 4 11 24 27 30 29 38 48 60 59 69 71 70 69 74 76 71
27 34 33 34 38 38 37 35 36 46 32 17 11 10 8 7 9 6 4 7 3 4 8 6 6 7 10 15 8 5 10 2 2 2 6 2 5 13 20 30 34 31 37 50 55 54 60 67 65 66 74 71 67 62
15 21 26 22 27 29 29 33 32 23 13 13 9 9 4 4 3 3 2 5 5 7 6 5 5 6 6 9 5 9 1 2 6 5 4 3 6 14 21 31 41 47 49 55 60 63 67 67 66 64 62 59 53 48
10 13 21 16 16 15 15 18 16 9 10 10 9 3 3 3 3 4 13 10 4 2 4 8 15 7 5 10 5 6 6 1 6 8 3 5 12 19 27 36 45 50 55 59 63 65 66 64 63 62 53 46 38 32
14 20 18 19 15 20 18 11 13 10 11 12 17 4 4 5 2 8 11 6 18 6 6 8 6 8 11 7 6 3 9 10 4 1 4 15 23 33 37 38 44 48 52 59 57 58 57 53 51 48 44 37 31 26
19 19 20 17 11 15 14 10 13 14 11 9 5 10 5 3 5 2 9 15 15 10 3 5 9 5 5 7 6 5 3 5 4 13 22 26 29 33 36 39 42 44 47 50 50 48 47 45 42 38 34 30 24 21
22 21 15 21 12 16 15 12 10 10 10 11 5 4 8 17 12 11 12 21 13 7 6 4 7 9 6 8 2 4 5 10 21 29 33 34 34 33 33 35 38 38 43 45 42 42 40 39 36 34 30 27 23 19
10 16 21 23 16 9 6 6 8 8 4 8 11 9 11 13 30 20 19 24 31 21 14 10 14 6 4 3 3 6 10 4 14 30 36 36 34 32 34 35 34 35 36 38 38 40 39 36 31 28 25 21 17 13
9 9 23 12 5 6 9 10 9 12 4 4 8 9 9 9 7 27 43 33 27 15 18 12 6 5 5 4 10 7 12 24 28 36 35 30 30 29 33 33 33 33 33 34 33 31 29 28 27 25 21 17 14 11
5 3 15 13 7 15 13 8 11 9 11 9 5 6 9 13 19 28 31 29 25 14 6 12 11 13 16 17 16 15 17 22 16 14 25 25 27 26 30 30 29 29 26 28 26 27 25 21 18 16 13 10 8 7
4 13 12 10 10 11 14 16 8 7 7 8 9 11 11 6 10 20 18 32 14 13 9 7 12 15 15 18 19 20 22 19 15 21 23 23 23 24 24 25 25 23 22 20 18 15 13 12 11 10 8 8 9 12
9 8 12 14 10 12 6 14 9 15 6 4 5 7 7 6 12 13 8 13 11 19 13 12 16 19 19 19 18 18 17 18 20 22 22 20 18 17 18 18 19 19 16 16 15 14 13 13 13 13 13 15 18 20
15 14 21 18 29 6 10 15 12 12 10 8 6 6 7 6 11 9 8 7 8 14 14 15 17 17 16 12 12 15 16 16 16 17 18 17 18 16 15 15 15 15 15 14 14 13 14 15 16 18 19 21 22 22
9 27 20 16 23 13 15 11 12 9 8 8 6 7 6 14 6 8 5 4 8 15 14 11 8 8 7 7 7 8 10 10 10 12 12 11 12 13 14 15 15 16 16 17 17 17 16 16 16 18 20 21 23 24
19 20 13 8 12 10 6 8 10 8 6 7 5 8 7 6 9 4 2 5 6 10 11 10 8 7 5 3 3 4 5 5 5 6 9 10 10 11 12 13 14 15 16 18 18 18 17 17 18 20 23 25 27 28
14 9 16 18 10 6 9 10 8 8 10 10 6 11 6 10 5 4 2 5 5 7 10 8 8 7 5 3 3 1 2 4 5 7 10 10 8 9 11 15 17 20 19 20 21 23 24 24 23 24 24 23 26 30
11 21 8 23 12 16 6 6 8 7 5 13 3 11 7 4 4 2 3 6 6 8 11 9 10 9 8 6 4 2 4 7 8 10 11 9 9 10 11 11 12 14 16 18 20 22 24 26 26 26 28 27 24 27
13 28 11 9 9 13 11 6 3 7 13 6 5 3 3 7 7 8 11 10 10 11 10 10 11 13 14 10 6 4 1 5 5 7 8 8 8 9 10 10 13 16 18 19 22 24 24 26 29 31 29 28 27 28
16 26 9 7 8 7 11 12 13 18 18 16 12 27 28 22 25 25 17 15 11 11 14 15 16 13 10 7 7 7 3 2 3 6 9 10 9 13 14 16 17 20 23 24 24 24 28 29 28 29 30 30 30 31
19 14 5 10 6 9 13 14 26 31 31 36 34 28 17 13 18 21 27 23 19 16 13 14 15 14 10 11 8 6 6 6 3 3 6 10 15 18 20 22 24 25 27 27 28 29 29 29 30 30 31 32 32 35
18 15 6 5 3 10 8 6 7 8 7 6 8 7 6 6 7 7 14 19 19 18 19 19 16 13 8 12 5 6 11 9 10 12 15 17 17 19 22 23 25 27 29 30 30 30 30 31 31 31 32 31 31 32
6 10 11 6 7 8 16 11 6 6 8 6 8 8 7 6 7 12 15 16 23 20 21 21 18 12 6 11 5 7 14 16 18 21 22 22 22 23 24 25 27 29 29 30 30 31 31 32 32 31 32 32 32 31
Wind_Direction_500mb
283 279 267 257 260 261 256 248 257 284 227 208 197 204 209 212 213 205 215 209 194 174 207 210 218 190 165 193 192 206 177 220 202 215 210 222 138 176 102 181 152 161 156 166 107 144 262 155 130 173 194 124 169 175
267 264 265 255 246 252 250 237 240 262 222 189 188 197 205 204 203 190 181 194 203 208 218 219 219 222 223 198 198 214 182 168 206 202 203 122 153 132 166 184 177 133 179 170 185 206 84 183 38 187 168 155 168 175
243 248 249 250 234 243 241 227 228 222 208 180 195 201 196 202 195 184 164 172 183 205 234 250 230 225 226 207 224 207 217 218 194 198 133 148 171 136 157 219 131 84 139 147 112 211 213 192 162 174 173 168 172 182
227 224 234 236 227 239 231 218 220 218 215 213 209 206 202 202 195 207 190 190 183 166 164 223 225 226 224 220 220 233 223 206 174 166 126 147 183 199 231 152 164 191 143 148 240 288 96 188 190 171 159 156 159 173
84 169 208 224 248 237 218 215 214 217 216 213 208 206 207 200 189 207 199 204 200 193 188 199 203 221 228 232 232 226 218 213 159 132 131 198 339 151 202 83 185 194 173 179 207 169 161 186 181 176 168 162 167 165
11 336 283 263 253 231 216 214 212 213 217 203 201 198 203 188 193 194 181 209 216 207 230 250 215 201 207 208 221 218 201 203 184 146 160 157 185 271 137 192 252 183 184 182 169 168 143 173 182 180 174 167 168 171
353 329 285 250 238 229 216 212 211 205 200 189 189 195 185 178 169 172 197 216 187 188 202 261 290 181 166 154 152 166 185 180 150 142 175 131 154 267 68 255 218 184 168 156 153 154 123 159 174 176 174 166 168 169
6 39 71 97 120 140 149 156 161 165 168 176 189 196 172 179 157 163 215 165 182 185 241 311 283 145 220 89 105 118 111 122 127 136 140 132 131 147 235 216 157 160 158 154 159 167 176 169 163 162 166 165 164 165
12 44 70 117 141 139 136 132 146 153 158 157 151 160 147 140 123 121 150 155 172 184 185 194 202 183 69 76 93 86 133 171 188 133 170 134 149 207 274 247 159 157 164 159 151 151 155 159 159 160 164 166 163 159
21 13 143 98 91 106 124 136 139 138 151 147 127 88 82 101 127 141 151 162 164 150 141 106 121 135 108 63 73 134 64 111 123 118 239 152 121 61 15 94 149 178 166 156 137 128 150 152 158 161 166 168 168 163
36 41 67 82 94 101 108 117 126 123 123 75 44 63 118 128 138 60 55 59 358 73 17 164 152 136 59 96 130 355 104 52 89 209 69 85 106 94 45 105 131 153 158 162 173 167 168 167 164 162 163 166 163 161
49 54 63 80 91 94 98 106 111 106 85 95 117 112 105 68 66 78 2 345 22 206 275 156 180 105 86 97 96 7 93 66 118 341 88 134 118 99 103 112 127 145 156 152 158 158 161 160 162 162 159 158 158 157
53 68 69 79 87 103 100 99 106 106 99 83 84 80 50 347 46 102 168 297 232 164 238 227 74 76 113 66 75 65 69 193 54 68 157 184 98 112 111 116 120 126 134 136 140 145 151 152 153 156 153 154 155 155
43 77 82 73 88 99 114 122 126 110 51 47 56 51 77 33 70 240 214 200 309 317 163 95 57 74 33 56 339 84 31 270 53 64 244 118 126 124 117 118 123 116 123 127 129 136 139 142 142 145 149 151 156 157
72 102 115 105 107 117 125 145 145 97 61 67 46 89 68 301 282 236 278 298 27 241 239 137 87 83 28 95 46 122 45 53 202 193 79 80 131 122 116 115 118 121 123 124 128 133 136 141 144 145 147 149 152 155
141 127 126 141 156 112 138 103 126 66 59 47 44 40 3 120 347 354 338 18 9 322 303 53 71 44 49 94 67 223 111 208 206 45 100 122 128 126 122 122 119 119 124 125 129 132 135 139 143 145 146 152 159 166
167 101 143 167 137 117 128 64 35 51 74 67 22 31 294 331 108 58 358 359 356 329 71 76 75 112 112 57 63 20 211 316 278 101 103 113 116 115 120 124 125 127 128 128 132 136 140 141 144 147 153 154 159 168
119 112 134 160 154 169 107 53 69 71 61 61 84 10 68 26 354 29 22 19 33 25 28 88 99 62 92 131 188 300 2 87 110 107 105 110 115 118 124 128 129 133 135 136 141 144 147 148 150 151 155 161 171 184
166 189 154 130 125 130 106 57 40 94 103 97 106 72 69 83 45 42 55 68 70 79 84 40 64 61 75 68 97 85 85 133 143 109 102 109 116 123 127 130 132 134 138 142 145 150 150 151 154 155 159 164 171 183
331 206 197 173 161 79 87 59 57 83 104 75 65 67 86 71 47 38 49 59 60 46 43 38 42 46 56 67 104 123 123 101 109 108 99 109 113 125 128 129 134 138 144 145 146 148 151 153 157 161 164 166 172 186
224 108 134 171 95 68 81 46 61 68 107 85 72 54 56 40 33 24 21 28 63 33 67 56 60 75 85 77 83 95 127 147 145 129 125 122 121 124 129 134 138 138 143 146 152 154 155 154 155 157 165 178 193 215
169 168 127 97 75 71 71 42 68 64 66 76 55 41 35 36 27 15 17 45 60 43 49 79 98 114 116 107 104 120 130 147 147 138 139 136 133 130 134 139 142 147 151 152 151 155 162 173 186 198 213 235 255 266
121 106 71 47 93 56 5 13 55 20 70 38 48 52 31 48 20 15 73 60 77 24 47 94 117 124 114 101 101 111 125 130 132 136 141 145 145 144 145 149 152 156 164 171 178 186 199 212 225 236 248 259 264 268
68 54 32 37 28 28 358 23 25 26 47 32 44 61 33 14 9 58 76 63 46 39 72 104 127 130 127 121 119 109 110 117 126 128 130 141 149 150 161 169 173 177 183 192 202 213 226 236 242 247 250 256 261 266
75 13 21 5 17 23 26 13 0 24 51 1 62 25 358 359 64 52 54 43 37 37 51 78 123 154 151 133 101 108 103 108 124 139 141 150 155 163 171 179 186 194 199 206 210 219 230 243 254 263 268 269 270 271
65 10 40 350 5 47 347 38 20 8 8 42 16 308 5 69 61 45 317 20 37 33 46 64 84 121 124 120 84 77 92 116 134 155 172 175 180 194 204 202 201 211 221 227 229 233 242 256 263 266 270 275 278 278
50 340 4 23 359 358 44 32 42 59 44 17 335 354 38 62 31 277 5 23 37 44 37 44 52 42 37 11 7 352 179 169 174 193 200 214 228 227 226 227 229 229 240 246 249 251 250 254 263 269 268 269 274 278
68 28 29 333 29 33 80 45 36 21 330 339 336 28 92 114 209 40 43 52 76 52 33 44 34 27 23 15 347 276 217 186 187 198 207 215 211 211 211 216 223 233 240 250 258 263 267 269 269 268 268 270 268 273
38 351 344 12 38 51 47 47 353 4 348 348 100 79 108 66 86 88 78 78 75 49 37 37 23 11 6 25 47 82 189 213 215 202 202 201 209 213 218 227 234 241 251 263 271 275 275 275 275 274 277 279 278 279
356 0 19 34 53 37 16 21 22 48 58 64 84 107 101 100 85 70 74 70 69 52 44 35 31 31 43 31 9 11 47 145 187 205 220 234 239 236 258 271 280 282 280 277 273 271 275 276 277 281 286 289 291 290
349 353 54 44 75 26 23 63 74 74 79 87 100 95 97 111 89 60 48 50 46 48 49 43 29 24 29 27 48 87 74 53 18 300 267 260 260 262 266 271 275 277 279 279 278 276 272 269 271 274 278 282 285 287
10 25 29 61 24 19 28 53 64 77 67 64 58 65 86 97 82 55 24 22 30 35 30 23 21 23 24 17 40 32 16 359 337 320 306 297 289 282 279 277 277 278 277 276 276 276 276 276 276 278 281 282 284 286
12 24 42 42 23 18 8 18 59 86 62 64 55 49 58 69 95 31 8 2 1 360 10 6 360 356 359 6 352 350 349 341 331 324 316 309 305 301 296 292 287 284 282 278 276 276 276 277 280 282 284 286 287 289
Wind_Speed_850mb
70 64 63 62 57 51 44 40 40 35 34 53 74 58 58 61 64 68 76 88 76 19 11 47 45 25 18 43 18 13 14 14 14 18 26 8 4 8 7 10 24 17 15 9 7 3 15 21 19 29 12 9 35 55
82 70 60 58 56 54 47 43 37 28 34 57 48 47 47 54 57 55 49 77 83 23 11 37 37 47 50 59 28 29 14 13 21 10 7 8 2 7 18 13 6 8 15 16 22 16 3 49 3 23 23 28 31 61
83 68 61 55 55 55 47 46 41 30 25 33 31 37 43 48 56 57 56 58 51 31 16 23 33 55 50 55 45 12 18 26 38 19 6 3 7 6 8 8 11 1 7 9 10 13 9 42 11 20 22 23 33 51
30 44 45 47 50 54 49 51 49 44 40 36 37 38 39 47 52 57 53 51 56 19 6 11 48 60 49 55 60 64 45 24 37 19 6 5 4 4 5 7 7 9 18 14 3 2 8 25 31 34 29 30 37 50
18 14 26 36 44 57 60 54 56 50 46 49 47 44 42 49 52 54 52 48 64 32 9 8 20 37 48 58 49 79 87 55 18 8 4 4 1 8 1 3 3 9 23 20 17 22 9 29 48 41 41 44 47 65
33 21 22 32 39 41 58 62 62 58 56 55 53 51 48 51 61 40 16 51 56 58 6 3 11 17 33 53 51 60 71 53 23 15 5 11 4 8 8 6 7 30 31 31 11 53 16 39 52 46 46 50 59 69
62 37 23 13 18 30 46 56 64 68 61 62 58 58 57 60 61 40 16 15 77 48 4 5 4 5 22 47 28 34 44 29 15 14 5 8 10 6 4 1 9 39 35 27 41 59 27 51 36 51 53 60 65 71
63 26 12 10 14 25 36 45 57 66 71 68 62 50 68 62 43 14 11 34 71 38 9 1 4 3 14 15 7 13 14 12 7 10 8 6 10 1 6 10 19 37 35 49 58 38 50 53 53 53 57 67 69 76
75 18 11 11 30 36 53 59 65 66 64 59 53 58 55 33 14 19 49 55 54 13 5 3 5 5 12 10 10 10 13 7 6 5 3 8 5 9 4 4 26 54 41 55 42 40 53 64 65 63 67 70 82 86
77 38 34 55 56 65 64 65 61 66 62 67 56 19 11 15 36 34 25 17 11 3 3 3 5 3 5 3 4 4 6 4 4 2 5 3 4 7 12 10 23 23 44 66 64 42 62 71 77 77 79 82 89 93
50 62 68 69 65 62 61 58 56 48 48 17 14 12 30 42 16 6 4 4 4 3 6 1 4 6 6 6 5 4 5 1 5 2 2 0 4 4 5 22 21 31 52 53 54 64 66 76 83 81 74 75 83 85
40 49 51 51 48 49 48 49 37 27 19 20 38 33 15 7 10 9 3 5 2 3 1 5 4 9 9 7 6 9 6 3 6 3 4 5 3 4 11 24 27 30 29 38 48 60 59 69 71 70 69 74 76 71
27 34 33 34 38 38 37 35 36 46 32 17 11 10 8 7 9 6 4 7 3 4 8 6 6 7 10 15 8 5 10 2 2 2 6 2 5 13 20 30 34 31 37 50 55 54 60 67 65 66 74 71 67 62
15 21 26 22 27 29 29 33 32 23 13 13 9 9 4 4 3 3 2 5 5 7 6 5 5 6 6 9 5 9 1 2 6 5 4 3 6 14 21 31 41 47 49 55 60 63 67 67 66 64 62 59 53 48
10 13 21 16 16 15 15 18 16 9 10 10 9 3 3 3 3 4 13 10 4 2 4 8 15 7 5 10 5 6 6 1 6 8 3 5 12 19 27 36 45 50 55 59 63 65 66 64 63 62 53 46 38 32
14 20 18 19 15 20 18 11 13 10 11 12 17 4 4 5 2 8 11 6 18 6 6 8 6 8 11 7 6 3 9 10 4 1 4 15 23 33 37 38 44 48 52 59 57 58 57 53 51 48 44 37 31 26
19 19 20 17 11 15 14 10 13 14 11 9 5 10 5 3 5 2 9 15 15 10 3 5 9 5 5 7 6 5 3 5 4 13 22 26 29 33 36 39 42 44 47 50 50 48 47 45 42 38 34 30 24 21
22 21 15 21 12 16 15 12 10 10 10 11 5 4 8 17 12 11 12 21 13 7 6 4 7 9 6 8 2 4 5 10 21 29 33 34 34 33 33 35 38 38 43 45 42 42 40 39 36 34 30 27 23 19
10 16 21 23 16 9 6 6 8 8 4 8 11 9 11 13 30 20 19 24 31 21 14 10 14 6 4 3 3 6 10 4 14 30 36 36 34 32 34 35 34 35 36 38 38 40 39 36 31 28 25 21 17 13
9 9 23 12 5 6 9 10 9 12 4 4 8 9 9 9 7 27 43 33 27 15 18 12 6 5 5 4 10 7 12 24 28 36 35 30 30 29 33 33 33 33 33 34 33 31 29 28 27 25 21 17 14 11
5 3 15 13 7 15 13 8 11 9 11 9 5 6 9 13 19 28 31 29 25 14 6 12 11 13 16 17 16 15 17 22 16 14 25 25 27 26 30 30 29 29 26 28 26 27 25 21 18 16 13 10 8 7
4 13 12 10 10 11 14 16 8 7 7 8 9 11 11 6 10 20 18 32 14 13 9 7 12 15 15 18 19 20 22 19 15 21 23 23 23 24 24 25 25 23 22 20 18 15 13 12 11 10 8 8 9 12
9 8 12 14 10 12 6 14 9 15 6 4 5 7 7 6 12 13 8 13 11 19 13 12 16 19 19 19 18 18 17 18 20 22 22 20 18 17 18 18 19 19 16 16 15 14 13 13 13 13 13 15 18 20
15 14 21 18 29 6 10 15 12 12 10 8 6 6 7 6 11 9 8 7 8 14 14 15 17 17 16 12 12 15 16 16 16 17 18 17 18 16 15 15 15 15 15 14 14 13 14 15 16 18 19 21 22 22
9 27 20 16 23 13 15 11 12 9 8 8 6 7 6 14 6 8 5 4 8 15 14 11 8 8 7 7 7 8 10 10 10 12 12 11 12 13 14 15 15 16 16 17 17 17 16 16 16 18 20 21 23 24
19 20 13 8 12 10 6 8 10 8 6 7 5 8 7 6 9 4 2 5 6 10 11 10 8 7 5 3 3 4 5 5 5 6 9 10 10 11 12 13 14 15 16 18 18 18 17 17 18 20 23 25 27 28
14 9 16 18 10 6 9 10 8 8 10 10 6 11 6 10 5 4 2 5 5 7 10 8 8 7 5 3 3 1 2 4 5 7 10 10 8 9 11 15 17 20 19 20 21 23 24 24 23 24 24 23 26 30
11 21 8 23 12 16 6 6 8 7 5 13 3 11 7 4 4 2 3 6 6 8 11 9 10 9 8 6 4 2 4 7 8 10 11 9 9 10 11 11 12 14 16 18 20 22 24 26 26 26 28 27 24 27
13 28 11 9 9 13 11 6 3 7 13 6 5 3 3 7 7 8 11 10 10 11 10 10 11 13 14 10 6 4 1 5 5 7 8 8 8 9 10 10 13 16 18 19 22 24 24 26 29 31 29 28 27 28
16 26 9 7 8 7 11 12 13 18 18 16 12 27 28 22 25 25 17 15 11 11 14 15 16 13 10 7 7 7 3 2 3 6 9 10 9 13 14 16 17 20 23 24 24 24 28 29 28 29 30 30 30 31
19 14 5 10 6 9 13 14 26 31 31 36 34 28 17 13 18 21 27 23 19 16 13 14 15 14 10 11 8 6 6 6 3 3 6 10 15 18 20 22 24 25 27 27 28 29 29 29 30 30 31 32 32 35
18 15 6 5 3 10 8 6 7 8 7 6 8 7 6 6 7 7 14 19 19 18 19 19 16 13 8 12 5 6 11 9 10 12 15 17 17 19 22 23 25 27 29 30 30 30 30 31 31 31 32 31 31 32
6 10 11 6 7 8 16 11 6 6 8 6 8 8 7 6 7 12 15 16 23 20 21 21 18 12 6 11 5 7 14 16 18 21 22 22 22 23 24 25 27 29 29 30 30 31 31 32 32 31 32 32 32 31
Wind_Direction_850mb
283 279 267 257 260 261 256 248 257 284 227 208 197 204 209 212 213 205 215 209 194 174 207 210 218 190 165 193 192 206 177 220 202 215 210 222 138 176 102 181 152 161 156 166 107 144 262 155 130 173 194 124 169 175
267 264 265 255 246 252 250 237 240 262 222 189 188 197 205 204 203 190 181 194 203 208 218 219 219 222 223 198 198 214 182 168 206 202 203 122 153 132 166 184 177 133 179 170 185 206 84 183 38 187 168 155 168 175
243 248 249 250 234 243 241 227 228 222 208 180 195 201 196 202 195 184 164 172 183 205 234 250 230 225 226 207 224 207 217 218 194 198 133 148 171 136 157 219 131 84 139 147 112 211 213 192 162 174 173 168 172 182
227 224 234 236 227 239 231 218 220 218 215 213 209 206 202 202 195 207 190 190 183 166 164 223 225 226 224 220 220 233 223 206 174 166 126 147 183 199 231 152 164 191 143 148 240 288 96 188 190 171 159 156 159 173
84 169 208 224 248 237 218 215 214 217 216 213 208 206 207 200 189 207 199 204 200 193 188 199 203 221 228 232 232 226 218 213 159 132 131 198 339 151 202 83 185 194 173 179 207 169 161 186 181 176 168 162 167 165
11 336 283 263 253 231 216 214 212 213 217 203 201 198 203 188 193 194 181 209 216 207 230 250 215 201 207 208 221 218 201 203 184 146 160 157 185 271 137 192 252 183 184 182 169 168 143 173 182 180 174 167 168 171
353 329 285 250 238 229 216 212 211 205 200 189 189 195 185 178 169 172 197 216 187 188 202 261 290 181 166 154 152 166 185 180 150 142 175 131 154 267 68 255 218 184 168 156 153 154 123 159 174 176 174 166 168 169
6 39 71 97 120 140 149 156 161 165 168 176 189 196 172 179 157 163 215 165 182 185 241 311 283 145 220 89 105 118 111 122 127 136 140 132 131 147 235 216 157 160 158 154 159 167 176 169 163 162 166 165 164 165
12 44 70 117 141 139 136 132 146 153 158 157 151 160 147 140 123 121 150 155 172 184 185 194 202 183 69 76 93 86 133 171 188 133 170 134 149 207 274 247 159 157 164 159 151 151 155 159 159 160 164 166 163 159
21 13 143 98 91 106 124 136 139 138 151 147 127 88 82 101 127 141 151 162 164 150 141 106 121 135 108 63 73 134 64 111 123 118 239 152 121 61 15 94 149 178 166 156 137 128 150 152 158 161 166 168 168 163
36 41 67 82 94 101 108 117 126 123 123 75 44 63 118 128 138 60 55 59 358 73 17 164 152 136 59 96 130 355 104 52 89 209 69 85 106 94 45 105 131 153 158 162 173 167 168 167 164 162 163 166 163 161
49 54 63 80 91 94 98 106 111 106 85 95 117 112 105 68 66 78 2 345 22 206 275 156 180 105 86 97 96 7 93 66 118 341 88 134 118 99 103 112 127 145 156 152 158 158 161 160 162 162 159 158 158 157
53 68 69 79 87 103 100 99 106 106 99 83 84 80 50 347 46 102 168 297 232 164 238 227 74 76 113 66 75 65 69 193 54 68 157 184 98 112 111 116 120 126 134 136 140 145 151 152 153 156 153 154 155 155
43 77 82 73 88 99 114 122 126 110 51 47 56 51 77 33 70 240 214 200 309 317 163 95 57 74 33 56 339 84 31 270 53 64 244 118 126 124 117 118 123 116 123 127 129 136 139 142 142 145 149 151 156 157
72 102 115 105 107 117 125 145 145 97 61 67 46 89 68 301 282 236 278 298 27 241 239 137 87 83 28 95 46 122 45 53 202 193 79 80 131 122 116 115 118 121 123 124 128 133 136 141 144 145 147 149 152 155
141 127 126 141 156 112 138 103 126 66 59 47 44 40 3 120 347 354 338 18 9 322 303 53 71 44 49 94 67 223 111 208 206 45 100 122 128 126 122 122 119 119 124 125 129 132 135 139 143 145 146 152 159 166
167 101 143 167 137 117 128 64 35 51 74 67 22 31 294 331 108 58 358 359 356 329 71 76 75 112 112 57 63 20 211 316 278 101 103 113 116 115 120 124 125 127 128 128 132 136 140 141 144 147 153 154 159 168
119 112 134 160 154 169 107 53 69 71 61 61 84 10 68 26 354 29 22 19 33 25 28 88 99 62 92 131 188 300 2 87 110 107 105 110 115 118 124 128 129 133 135 136 141 144 147 148 150 151 155 161 171 184
166 189 154 130 125 130 106 57 40 94 103 97 106 72 69 83 45 42 55 68 70 79 84 40 64 61 75 68 97 85 85 133 143 109 102 109 116 123 127 130 132 134 138 142 145 150 150 151 154 155 159 164 171 183
331 206 197 173 161 79 87 59 57 83 104 75 65 67 86 71 47 38 49 59 60 46 43 38 42 46 56 67 104 123 123 101 109 108 99 109 113 125 128 129 134 138 144 145 146 148 151 153 157 161 164 166 172 186
224 108 134 171 95 68 81 46 61 68 107 85 72 54 56 40 33 24 21 28 63 33 67 56 60 75 85 77 83 95 127 147 145 129 125 122 121 124 129 134 138 138 143 146 152 154 155 154 155 157 165 178 193 215
169 168 127 97 75 71 71 42 68 64 66 76 55 41 35 36 27 15 17 45 60 43 49 79 98 114 116 107 104 120 130 147 147 138 139 136 133 130 134 139 142 147 151 152 151 155 162 173 186 198 213 235 255 266
121 106 71 47 93 56 5 13 55 20 70 38 48 52 31 48 20 15 73 60 77 24 47 94 117 124 114 101 101 111 125 130 132 136 141 145 145 144 145 149 152 156 164 171 178 186 199 212 225 236 248 259 264 268
68 54 32 37 28 28 358 23 25 26 47 32 44 61 33 14 9 58 76 63 46 39 72 104 127 130 127 121 119 109 110 117 126 128 130 141 149 150 161 169 173 177 183 192 202 213 226 236 242 247 250 256 261 266
75 13 21 5 17 23 26 13 0 24 51 1 62 25 358 359 64 52 54 43 37 37 51 78 123 154 151 133 101 108 103 108 124 139 141 150 155 163 171 179 186 194 199 206 210 219 230 243 254 263 268 269 270 271
65 10 40 350 5 47 347 38 20 8 8 42 16 308 5 69 61 45 317 20 37 33 46 64 84 121 124 120 84 77 92 116 134 155 172 175 180 194 204 202 201 211 221 227 229 233 242 256 263 266 270 275 278 278
50 340 4 23 359 358 44 32 42 59 44 17 335 354 38 62 31 277 5 23 37 44 37 44 52 42 37 11 7 352 179 169 174 193 200 214 228 227 226 227 229 229 240 246 249 251 250 254 263 269 268 269 274 278
68 28 29 333 29 33 80 45 36 21 330 339 336 28 92 114 209 40 43 52 76 52 33 44 34 27 23 15 347 276 217 186 187 198 207 215 211 211 211 216 223 233 240 250 258 263 267 269 269 268 268 270 268 273
38 351 344 12 38 51 47 47 353 4 348 348 100 79 108 66 86 88 78 78 75 49 37 37 23 11 6 25 47 82 189 213 215 202 202 201 209 213 218 227 234 241 251 263 271 275 275 275 275 274 277 279 278 279
356 0 19 34 53 37 16 21 22 48 58 64 84 107 101 100 85 70 74 70 69 52 44 35 31 31 43 31 9 11 47 145 187 205 220 234 239 236 258 271 280 282 280 277 273 271 275 276 277 281 286 289 291 290
349 353 54 44 75 26 23 63 74 74 79 87 100 95 97 111 89 60 48 50 46 48 49 43 29 24 29 27 48 87 74 53 18 300 267 260 260 262 266 271 275 277 279 279 278 276 272 269 271 274 278 282 285 287
10 25 29 61 24 19 28 53 64 77 67 64 58 65 86 97 82 55 24 22 30 35 30 23 21 23 24 17 40 32 16 359 337 320 306 297 289 282 279 277 277 278 277 276 276 276 276 276 276 278 281 282 284 286
12 24 42 42 23 18 8 18 59 86 62 64 55 49 58 69 95 31 8 2 1 360 10 6 360 356 359 6 352 350 349 341 331 324 316 309 305 301 296 292 287 284 282 278 276 276 276 277 280 282 284 286 287 289